Dewpoint
51 51 51 51 51 51 51 51 51 50 49 45 44 43 35 34 31 35 38 38 38 34 25 29 30 27 28 30 28 28 28 30 32 31 31 28 27 26 26 25 24 25 27 26 26 27 29 29 28 29 29 28 27 28 28 28 36 38 34 38 34 41 38 26 22 25 20 19 16 18 18 17 18 19 19 17 16 17 18 20 30 19 22 19 20 22 23
51 51 51 51 51 51 51 51 51 50 50 48 47 40 36 36 34 35 38 38 36 28 26 26 26 28 29 29 27 27 29 31 32 32 32 29 28 27 26 26 26 26 28 28 28 27 27 27 25 25 28 28 30 27 29 29 33 36 33 33 32 30 36 33 26 23 23 19 19 15 17 16 16 16 19 19 17 17 17 24 36 22 20 17 19 17 20
51 51 51 51 51 50 50 51 50 50 50 50 46 40 39 37 37 39 37 36 32 28 29 29 28 28 28 28 25 27 28 31 32 33 32 31 31 29 28 28 28 28 29 28 28 27 26 29 25 25 26 26 28 28 29 29 34 35 34 40 35 35 35 34 22 22 21 21 19 19 18 18 24 23 17 19 17 18 19 21 29 21 30 28 20 19 31
51 51 51 51 50 50 50 51 51 50 50 49 46 43 39 33 28 29 30 33 33 31 32 31 30 29 28 28 25 28 27 29 33 33 35 34 33 31 29 30 28 27 28 26 26 27 25 25 26 27 25 27 27 27 29 29 33 39 38 39 35 36 38 38 36 32 29 33 36 32 32 29 24 22 26 20 16 16 19 25 28 20 35 27 27 29 27
51 51 51 50 50 50 50 50 51 50 50 49 47 43 39 38 31 30 30 30 34 29 30 30 31 29 31 28 28 27 28 29 29 34 34 38 34 33 31 31 29 29 28 28 25 27 24 27 27 27 27 28 27 27 29 29 36 39 32 35 33 36 30 34 36 35 32 27 29 27 29 28 28 27 26 28 24 18 18 19 23 43 26 20 29 41 28
51 51 50 50 50 50 50 50 50 50 50 49 48 39 39 32 31 33 38 32 28 28 28 31 31 31 30 29 31 28 27 27 27 29 33 33 37 33 31 32 32 31 30 29 26 28 26 29 27 26 29 27 27 24 27 28 34 32 25 29 32 32 27 32 28 26 26 26 26 27 29 29 29 28 28 28 29 30 23 22 33 33 22 20 36 45 37
51 50 49 50 50 50 50 50 50 50 49 49 47 39 36 36 35 34 38 32 31 32 32 33 32 30 29 33 31 27 26 26 28 29 30 31 33 33 30 32 34 33 32 31 29 30 24 25 31 30 30 28 28 25 26 27 27 26 25 27 34 33 28 34 26 25 25 25 25 28 28 28 27 27 27 27 26 27 28 27 21 23 32 29 29 45 33
50 50 50 50 50 51 51 50 50 49 49 49 45 43 37 36 35 35 35 35 33 32 33 33 31 28 31 29 26 30 27 27 29 30 29 29 31 32 30 31 33 34 33 33 29 29 30 30 28 31 31 29 30 28 28 27 27 27 25 27 31 27 26 31 23 26 24 24 26 28 26 26 26 25 25 25 26 27 27 27 26 26 22 20 20 38 40
51 50 50 50 50 50 50 50 49 49 49 46 43 41 42 41 43 41 37 33 31 34 31 31 30 28 28 28 28 29 28 28 30 30 30 31 31 31 30 31 32 33 33 32 32 31 32 32 31 31 31 29 30 28 28 28 28 28 26 30 30 26 23 29 28 23 22 24 25 24 24 25 26 26 26 26 27 26 26 28 27 27 29 29 24 28 30
51 50 50 50 50 50 50 50 50 49 49 45 45 39 44 45 47 44 41 32 35 31 32 31 29 25 29 31 30 30 30 31 32 29 31 35 34 32 31 32 33 32 31 31 32 32 31 31 31 31 31 31 31 30 30 29 29 29 29 31 27 29 28 24 22 22 23 23 24 24 25 24 20 21 21 22 24 25 25 26 28 26 24 25 26 26 29
51 51 50 50 49 49 49 49 49 50 49 46 44 41 41 42 41 42 41 32 31 33 30 28 28 31 29 30 30 30 31 31 32 30 29 30 31 32 32 33 33 31 31 33 33 33 33 33 33 33 32 31 30 30 29 29 29 29 29 29 30 32 30 22 28 21 22 21 22 25 24 19 21 31 34 41 38 36 26 22 23 25 24 24 25 26 34
51 51 50 50 50 49 49 49 49 50 48 49 48 44 43 45 45 42 38 32 29 30 30 28 28 29 29 30 31 31 30 30 31 33 31 31 31 32 32 31 34 30 34 35 33 33 34 34 33 34 33 32 31 30 28 28 27 32 30 29 28 28 34 26 28 20 20 22 24 23 20 21 33 31 44 46 45 45 45 44 38 28 26 24 24 25 34
50 50 50 50 50 50 49 49 49 49 49 50 48 44 44 47 44 41 39 35 30 30 28 29 31 31 31 31 31 30 31 31 31 32 32 32 31 31 31 32 33 33 33 33 34 34 33 32 32 33 31 31 30 29 29 28 28 27 28 29 29 28 27 28 28 27 23 22 24 20 19 29 26 31 46 48 46 46 47 38 37 45 47 45 31 28 29
50 50 50 50 50 50 49 49 49 49 49 49 48 47 46 48 43 41 39 35 33 31 34 31 30 30 32 31 31 29 30 30 31 32 32 32 31 31 31 32 32 33 34 34 35 36 35 32 27 27 26 29 30 30 29 28 28 27 27 29 30 29 29 30 22 28 18 21 20 21 29 23 22 40 44 46 45 47 47 41 46 50 53 53 54 53 46
50 50 50 50 50 50 50 49 49 49 49 50 48 47 47 48 46 44 43 39 33 33 33 29 29 30 31 31 31 31 30 31 30 30 31 31 31 31 31 32 34 34 34 36 33 38 35 35 27 23 23 20 15 15 26 27 29 29 28 28 31 33 30 30 23 22 22 18 18 19 19 20 28 45 47 48 49 50 50 48 45 52 52 52 53 53 55
51 50 50 50 50 50 50 49 50 50 49 49 49 47 46 48 48 45 43 39 37 30 33 32 33 33 32 31 32 32 31 30 31 30 30 31 30 31 32 34 34 33 34 36 39 36 35 29 24 25 21 21 23 25 25 24 25 28 30 30 29 31 31 32 27 20 22 18 15 16 19 24 44 46 45 49 50 50 51 44 38 51 52 52 52 53 55
51 50 50 51 51 50 51 50 49 50 49 49 48 46 45 48 47 46 42 41 39 34 33 34 34 34 33 31 32 32 34 30 31 29 29 29 31 30 33 34 33 32 37 37 39 36 33 28 30 30 27 31 25 23 20 28 24 27 31 31 29 29 29 29 27 26 26 22 16 14 22 23 38 44 46 49 52 49 46 32 31 51 51 52 54 54 55
51 51 51 51 51 51 51 51 49 49 50 50 48 46 45 47 48 48 43 41 37 35 35 35 35 34 33 33 31 32 34 33 33 34 31 30 31 31 34 33 30 32 38 33 37 32 30 30 25 26 23 27 27 30 26 26 29 31 33 32 29 29 29 28 25 23 24 26 21 19 20 33 35 43 49 50 51 48 39 32 47 51 52 53 55 55 56
51 51 51 52 51 51 51 51 50 49 50 50 50 48 46 48 49 47 43 41 38 33 35 37 38 37 36 37 35 34 34 33 34 32 30 29 30 35 33 32 32 31 33 37 38 29 28 28 36 31 29 30 30 27 30 31 30 31 31 29 33 30 30 29 28 24 23 24 21 21 22 31 43 50 48 50 45 39 35 49 52 53 52 54 54 55 57
51 51 51 52 52 52 52 52 51 51 50 50 49 46 45 48 49 48 45 40 40 38 36 36 36 35 36 35 33 33 34 35 35 34 30 28 33 33 31 27 38 35 33 37 29 32 29 27 30 35 29 31 32 35 31 30 32 30 29 30 31 35 29 27 26 27 25 26 26 24 23 36 41 49 47 50 39 43 51 52 52 52 54 54 54 55 56
51 52 52 52 52 52 52 51 51 51 51 51 49 47 45 47 47 49 47 45 41 36 35 36 37 37 37 36 36 36 35 32 32 32 32 33 36 33 27 26 31 30 29 36 28 27 32 28 31 30 34 34 33 35 28 30 30 30 32 32 32 35 32 33 30 28 23 23 23 24 30 52 53 42 37 48 48 50 52 52 51 53 54 53 53 56 56
52 52 52 52 52 53 53 52 51 52 51 52 51 49 45 46 48 49 48 48 42 39 37 39 40 39 39 39 38 37 37 36 36 35 34 32 35 34 33 33 32 33 34 36 34 32 36 35 38 32 29 31 36 31 33 29 25 30 35 36 28 40 38 39 34 41 37 32 38 45 47 47 50 54 52 50 52 53 52 52 52 52 52 51 52 54 56
52 52 52 52 52 52 53 52 52 52 52 52 51 48 45 45 47 50 49 43 45 44 44 42 41 40 41 41 41 41 40 39 38 37 37 35 34 35 34 34 33 36 36 37 35 35 36 37 32 36 34 36 31 31 32 30 28 31 28 35 35 37 36 40 40 40 43 42 42 44 44 46 49 52 55 51 50 51 51 51 51 51 51 51 51 52 54
52 52 52 52 53 53 53 53 52 52 52 52 51 49 47 47 47 47 46 45 42 38 38 38 36 34 35 35 37 40 41 42 42 40 39 39 35 34 35 36 35 35 37 38 40 38 39 39 37 37 31 33 37 32 28 26 28 31 32 31 33 35 36 39 39 39 36 34 48 44 44 48 50 53 53 55 51 52 51 52 52 52 51 51 53 53 54
52 51 52 52 52 53 53 53 53 52 52 52 52 52 50 48 48 48 44 39 38 38 32 34 34 35 35 35 36 35 38 41 43 43 41 39 38 35 34 36 37 35 36 38 44 42 42 36 37 36 31 35 37 29 34 31 29 36 30 30 32 32 40 34 36 38 38 36 40 44 45 45 48 54 52 52 53 53 54 54 53 54 54 53 54 54 54
51 51 52 52 52 53 53 53 53 53 52 52 52 50 48 47 49 49 48 46 44 41 34 32 32 38 37 35 35 36 37 38 39 41 42 40 39 38 37 38 38 39 38 37 39 40 40 38 38 36 34 34 40 36 33 36 34 35 35 32 34 34 38 34 36 35 37 39 40 39 42 44 46 50 53 54 52 54 55 54 53 52 52 53 54 55 54
51 51 52 52 52 53 53 53 53 53 52 52 51 51 49 49 49 48 45 44 39 35 37 34 34 35 36 35 36 36 36 36 37 39 41 41 40 39 39 39 38 38 37 37 37 36 37 37 37 34 35 36 40 38 38 36 37 36 34 33 36 36 35 35 36 36 36 37 39 47 45 46 49 51 53 54 54 56 56 55 55 54 53 53 53 54 54
51 51 52 52 52 53 52 52 52 53 52 52 51 51 51 49 49 49 49 47 41 34 36 33 35 36 38 36 36 36 36 37 37 37 38 40 41 40 39 38 39 37 37 36 35 35 34 32 30 35 36 37 38 35 40 41 41 37 36 36 38 37 38 36 35 36 36 39 42 47 47 47 48 48 50 53 55 57 58 55 54 53 54 54 54 54 54
51 51 52 52 52 52 52 52 52 52 52 52 51 50 49 50 51 50 49 49 47 42 40 39 42 38 34 32 34 35 36 37 38 37 37 37 39 40 39 39 38 37 37 37 36 36 34 34 36 33 33 44 38 36 37 32 33 31 33 38 42 41 41 40 39 39 39 40 41 43 46 46 48 49 51 53 55 57 56 55 53 53 54 55 54 55 54
51 51 51 51 52 51 52 52 52 52 52 52 50 47 44 45 50 49 50 50 48 46 39 36 32 33 37 37 35 35 35 37 36 36 37 37 37 38 39 39 39 39 38 37 36 34 35 34 35 35 35 43 36 38 34 35 32 34 37 41 41 42 41 42 41 41 41 42 43 45 47 47 47 50 51 53 54 56 56 54 54 54 55 56 56 56 56
51 51 51 51 51 51 52 52 52 52 51 50 47 42 38 35 44 51 50 50 50 45 41 40 35 37 38 38 37 36 37 37 37 36 35 36 37 37 38 39 39 38 37 37 37 36 36 36 35 35 35 39 39 39 35 35 32 33 37 42 41 43 44 43 43 42 42 42 43 44 46 48 50 52 53 54 54 55 56 55 55 56 54 54 54 56 56
51 51 51 51 51 51 52 52 52 51 52 48 45 43 43 45 49 50 51 50 49 44 40 35 34 35 33 35 38 39 36 36 36 37 41 39 37 36 37 37 37 38 39 37 38 38 36 36 35 36 36 43 43 41 39 36 33 34 39 41 43 44 45 44 43 42 42 44 44 45 46 49 52 52 53 53 54 54 53 55 55 55 56 56 57 57 56
51 51 51 51 51 51 52 52 52 52 50 50 49 50 50 49 50 50 50 50 47 43 44 38 33 33 33 33 34 35 35 41 43 43 42 44 43 39 37 37 36 37 41 38 38 35 38 37 38 35 37 43 43 40 36 35 36 39 40 42 43 44 44 45 46 45 44 45 48 47 48 50 53 54 55 55 53 53 53 53 54 55 56 56 55 56 56
51 51 51 51 51 51 52 52 52 51 50 49 46 47 51 50 50 49 50 49 46 46 44 37 33 33 32 34 33 35 40 41 39 42 40 44 48 40 39 37 37 36 36 36 37 37 43 45 41 40 44 42 43 39 36 36 37 39 42 43 44 44 45 46 46 46 46 49 51 51 52 53 55 56 55 54 53 52 53 53 54 54 54 54 54 55 55
51 50 51 51 52 52 51 51 50 49 47 47 48 50 52 50 50 50 49 47 40 38 38 38 37 33 31 32 33 34 42 39 37 40 41 43 47 43 44 40 38 36 37 37 40 42 39 38 45 40 36 43 41 37 37 37 38 40 43 43 44 45 45 45 46 48 50 52 52 52 53 55 55 53 53 52 52 52 52 52 53 52 53 53 53 54 55
51 51 51 52 52 51 50 50 49 48 46 46 48 51 51 51 51 51 50 50 46 37 36 36 37 33 33 30 31 37 42 42 44 44 46 46 42 47 46 42 37 36 46 36 37 41 38 47 42 37 44 39 36 38 40 42 40 40 41 42 44 46 45 46 47 48 50 52 52 52 54 54 53 52 53 52 51 52 52 51 51 53 54 54 54 54 54
51 51 51 51 51 50 47 46 49 47 47 49 50 51 53 52 51 51 49 47 49 48 39 36 34 35 36 36 38 39 42 38 45 42 45 44 43 46 45 42 38 43 43 41 40 40 43 50 43 38 38 37 39 44 45 44 44 43 44 45 48 49 48 48 49 51 50 51 51 53 53 53 52 53 53 51 50 51 51 51 52 53 54 54 55 53 54
51 51 52 50 49 47 46 47 48 51 51 51 51 50 49 49 43 44 44 42 45 44 42 40 34 36 40 38 34 40 39 40 44 39 41 46 43 41 46 43 43 43 35 38 41 48 46 44 41 39 40 44 45 44 44 45 46 47 48 49 50 50 49 50 51 52 50 50 50 51 51 52 52 53 52 52 51 50 51 52 55 55 55 56 55 55 55
50 52 52 48 47 47 46 46 51 51 50 50 50 47 44 46 42 38 38 41 42 37 41 38 34 38 37 35 37 41 38 38 37 39 36 43 41 37 44 37 44 43 35 37 41 49 38 39 39 37 35 40 41 42 45 46 46 48 51 52 52 53 53 53 53 52 51 51 51 51 52 51 51 52 52 53 53 53 53 54 56 56 55 55 55 56 56
49 49 47 48 49 48 50 51 51 50 50 47 47 46 40 44 39 34 41 34 33 37 39 33 39 38 38 36 37 38 44 40 36 37 40 43 49 39 43 42 43 39 33 33 37 45 37 33 36 35 35 40 41 44 45 49 50 51 52 53 52 53 54 54 54 55 54 54 53 53 53 54 54 53 53 53 54 55 56 56 57 56 56 56 57 57 57
48 48 48 47 48 49 50 50 51 50 48 44 43 43 42 36 42 42 38 33 33 34 41 39 40 40 41 40 40 37 47 45 45 47 44 39 47 45 40 34 43 36 33 32 40 40 36 34 34 33 35 42 45 48 49 49 49 50 51 52 53 53 53 53 54 56 55 54 53 54 54 55 55 55 55 56 56 56 56 57 56 56 57 57 57 57 58
49 48 48 50 50 49 50 50 49 48 47 45 41 34 36 40 43 42 41 34 36 40 40 41 39 41 42 42 41 41 43 48 48 46 42 37 44 40 35 37 37 33 31 37 42 37 34 32 33 34 41 44 46 47 47 47 48 48 50 51 51 51 52 52 52 53 55 54 55 55 55 55 55 57 58 57 57 57 57 57 57 58 58 59 58 58 58
50 50 50 48 47 46 48 39 44 45 35 36 35 34 38 35 40 40 42 44 47 44 44 45 46 48 47 45 45 46 46 50 45 44 41 37 43 40 35 33 34 32 36 42 37 33 33 33 33 38 44 45 45 46 46 47 48 48 49 50 50 51 51 51 51 53 54 54 54 56 57 56 56 57 58 57 57 57 58 58 58 58 57 57 57 58 58
50 49 48 47 41 43 46 34 42 45 36 37 35 33 37 36 39 42 40 42 45 45 48 44 44 44 42 48 45 45 47 47 48 45 43 43 40 34 34 33 34 41 45 37 34 33 32 35 40 42 44 45 45 45 45 46 46 47 47 49 49 50 50 50 51 52 52 52 53 54 54 55 55 55 56 56 56 56 56 56 57 57 57 57 57 57 57
47 42 39 37 37 39 38 35 39 36 35 37 39 39 39 36 39 41 40 46 47 44 48 50 49 47 45 48 49 48 48 44 50 44 39 43 40 40 37 36 42 43 37 33 34 35 35 37 42 44 44 44 44 44 45 45 45 45 46 47 47 48 48 49 49 50 50 50 50 51 51 52 53 53 54 55 56 56 56 56 57 56 56 55 55 55 55
44 38 36 34 34 36 36 36 36 35 41 43 41 42 41 42 43 43 47 49 47 47 46 47 48 49 47 49 46 45 49 47 43 43 45 43 39 37 42 47 44 37 37 35 33 32 34 39 42 43 44 44 45 45 45 45 45 46 45 45 45 46 47 47 47 49 49 50 50 50 51 51 51 51 51 52 53 53 53 53 54 54 54 53 54 54 55
41 43 35 35 35 37 44 36 38 42 43 43 42 42 44 45 47 47 49 49 48 49 50 50 50 49 46 46 47 49 48 48 43 44 47 40 38 42 47 41 33 34 33 33 33 34 37 41 43 44 45 44 44 44 44 44 44 44 44 44 45 45 46 46 47 47 48 49 49 50 50 50 50 50 51 51 51 52 53 52 52 53 52 52 53 53 54
36 40 38 35 34 37 37 41 45 44 45 45 42 42 42 45 47 45 48 50 50 49 48 48 48 48 48 51 51 42 44 45 42 42 45 42 44 39 33 37 34 37 38 35 35 40 41 43 44 44 45 46 45 44 44 44 44 43 43 43 44 45 45 46 47 47 47 48 48 48 49 50 50 50 49 49 50 51 52 52 52 53 52 52 52 52 51
45 37 37 37 42 42 42 40 41 37 38 40 40 40 40 41 41 42 44 49 49 48 49 49 48 48 44 45 44 44 38 44 38 35 43 40 36 33 33 32 33 33 39 41 40 42 43 45 46 45 45 45 45 44 44 44 43 41 40 40 41 42 43 45 47 49 49 49 48 48 48 49 50 50 49 49 49 50 50 51 51 51 51 51 51 51 51
37 37 42 37 42 39 40 40 39 37 38 39 39 39 40 39 39 41 44 48 47 49 48 50 49 45 42 44 37 39 38 44 42 37 39 37 37 38 35 32 33 34 37 42 42 44 46 47 46 45 45 45 44 44 44 44 44 43 40 40 40 41 41 42 44 46 47 49 49 48 49 48 48 49 48 48 49 49 49 48 48 48 49 49 49 48 48
41 37 40 42 42 40 40 38 37 38 37 38 39 39 40 39 40 41 43 46 47 47 45 44 43 40 36 37 36 35 36 45 42 38 38 37 40 37 33 33 35 39 41 44 45 46 46 47 47 46 46 45 45 45 45 44 44 44 42 42 41 41 42 42 43 44 45 46 47 50 49 50 50 50 49 47 46 46 45 46 47 47 46 47 47 47 47
37 36 38 40 41 41 41 41 41 40 41 40 40 40 42 39 41 42 45 46 41 38 38 42 42 38 36 36 39 43 45 41 37 39 37 39 42 38 36 37 40 41 43 44 44 46 47 47 47 46 45 45 45 45 43 43 41 41 41 41 41 42 42 43 43 44 45 45 46 47 48 49 50 49 49 47 46 44 43 43 44 44 44 44 45 45 45